Temperature
14 14 14 15 12 11 13 13 14 15 15 16 17 17 16 16 16 17 16 17 17 17 17 17 16 16 16 16 17 17 17 17 17 17 17 17 17 17 17 17 17 16 16 16 16 16 16 15 15
13 14 14 14 11 12 13 13 13 15 16 17 17 16 16 15 16 16 16 16 16 17 16 16 16 16 16 16 16 17 17 17 17 17 17 17 17 17 17 16 16 16 16 16 16 16 15 15 15
13 14 14 10 11 12 14 14 13 15 16 16 16 16 15 15 16 16 16 16 16 16 16 16 16 16 16 16 16 16 16 16 17 16 16 16 16 16 16 16 16 16 16 16 16 15 15 15 15
13 14 13 10 12 12 13 14 14 14 16 16 15 14 15 15 16 16 16 16 16 16 16 16 16 16 16 16 16 16 16 16 16 16 16 16 16 16 16 16 16 16 16 16 15 15 15 15 15
13 13 11 11 11 12 12 13 14 14 15 15 15 13 14 15 15 16 16 16 16 16 16 16 15 15 15 16 16 16 16 16 16 16 16 16 16 16 16 16 16 16 16 15 15 15 15 15 15
13 10 10 11 11 12 12 13 14 14 14 14 14 13 14 15 15 15 15 15 15 15 15 15 15 15 15 15 15 15 15 15 15 15 15 15 15 15 15 15 15 15 15 15 15 15 15 15 15
11 9 10 11 11 12 13 14 14 13 13 14 15 13 14 15 15 15 15 15 15 15 15 15 15 15 15 15 15 15 15 15 15 15 15 15 15 15 15 15 15 15 15 15 15 15 15 15 15
12 9 10 10 11 12 13 13 13 13 13 14 14 13 13 14 14 14 14 14 14 14 14 15 14 14 14 14 15 15 15 15 15 15 15 15 15 14 14 15 15 15 14 14 14 14 14 14 14
12 9 9 10 10 12 12 12 13 13 13 14 14 14 14 14 14 14 14 14 14 14 14 14 14 14 14 14 14 14 14 14 14 14 14 14 14 14 14 14 14 14 14 14 14 14 14 14 14
11 9 10 10 11 11 12 12 12 12 12 12 13 14 14 14 14 14 14 14 14 14 14 14 14 14 14 14 14 14 14 14 14 14 14 14 14 14 14 14 14 14 14 14 14 14 14 13 13
9 9 10 10 11 11 11 11 12 11 11 12 13 14 14 13 13 14 14 14 13 13 13 13 13 13 13 13 13 13 13 13 13 13 13 13 13 13 13 13 13 13 13 13 13 13 13 13 13
9 9 10 10 11 11 11 11 11 11 12 13 13 13 13 13 13 13 13 13 13 13 13 13 13 13 13 13 13 13 13 13 13 13 13 13 13 13 13 13 13 13 13 13 13 13 13 13 13
8 9 10 10 10 10 10 10 10 11 12 12 12 12 13 13 13 13 13 13 13 13 13 13 13 13 13 12 12 12 12 12 12 12 12 12 12 12 12 12 12 12 12 13 13 13 13 13 13
8 8 9 9 10 10 9 9 9 11 12 12 12 12 12 12 12 12 12 13 13 13 12 12 12 12 12 12 12 12 12 12 12 11 12 12 12 12 12 12 12 12 12 12 12 12 12 12 12
9 8 8 8 9 9 9 9 8 11 11 11 11 12 12 12 12 12 12 13 13 12 12 12 12 12 12 12 12 11 11 11 11 11 11 11 11 11 11 11 11 11 11 11 11 11 11 11 11
8 8 8 9 8 8 9 9 10 11 11 10 11 11 11 12 12 12 12 12 12 12 12 12 12 12 12 12 11 11 11 11 11 11 11 11 11 11 11 11 11 11 11 11 11 11 11 11 11
7 7 8 8 8 8 8 8 9 10 10 9 10 11 11 11 12 12 12 12 12 12 12 12 11 11 11 11 11 11 11 11 11 11 10 10 10 10 10 10 10 10 10 10 10 10 10 10 10
7 7 7 7 8 7 7 7 8 9 9 9 9 10 11 11 11 12 11 11 11 11 11 11 11 11 11 11 11 11 11 10 10 10 10 10 10 10 10 10 10 10 10 10 10 10 10 10 10
7 7 7 7 7 7 6 7 7 8 8 7 8 9 10 11 11 11 11 11 11 11 11 11 11 11 11 10 10 10 10 10 10 10 10 9 9 9 9 9 9 9 9 9 9 9 9 9 9
7 7 7 7 7 7 6 6 7 7 7 8 8 9 10 10 10 10 11 10 10 10 10 11 10 10 10 10 10 10 10 10 10 9 9 9 9 9 9 9 9 9 9 9 9 9 8 9 8
6 6 7 7 7 6 6 6 7 7 7 8 8 9 9 10 10 10 10 10 10 10 10 10 10 10 10 10 10 10 9 9 9 9 9 9 8 8 8 8 8 8 8 8 8 8 8 8 8
6 7 7 7 6 5 6 6 6 6 6 6 7 8 9 9 10 10 10 10 10 10 10 10 10 10 10 9 9 9 9 8 8 8 8 8 8 8 8 8 8 7 7 7 8 8 8 7 7
6 6 6 6 5 5 5 5 5 5 6 6 6 7 8 9 9 9 9 10 10 10 10 9 9 9 9 9 9 8 8 8 8 8 8 8 8 8 8 7 7 7 7 7 7 7 7 7 7
5 5 4 4 4 4 4 4 5 5 6 6 6 7 8 8 8 9 9 9 9 9 9 9 9 9 9 8 8 8 8 8 7 7 7 7 7 7 7 7 7 7 7 7 7 7 7 7 7
5 5 5 4 3 4 4 4 5 5 5 5 5 6 7 8 8 8 8 8 9 9 9 9 8 8 8 8 8 8 7 7 7 7 6 6 6 7 7 7 7 6 6 6 6 6 6 6 7
5 5 5 5 4 4 4 4 5 5 5 6 6 6 7 7 7 8 8 8 8 8 8 8 8 8 8 8 8 7 7 7 6 6 6 6 6 6 6 6 6 6 6 6 6 6 6 6 6
4 4 5 3 3 3 4 4 4 5 5 4 5 5 6 7 7 7 8 8 8 8 8 8 8 8 8 7 7 7 7 6 6 6 6 6 6 6 6 6 6 6 6 6 6 5 6 6 5
5 4 3 3 4 4 4 4 5 5 5 5 4 4 6 7 7 7 7 7 7 7 7 7 7 7 7 7 6 6 6 6 6 6 6 6 6 6 6 6 5 5 5 5 5 5 5 5 5
3 3 3 2 3 3 4 5 5 4 5 4 4 5 6 6 7 7 7 7 7 7 7 7 7 7 7 6 6 6 6 6 6 5 5 5 5 5 5 5 5 5 5 5 5 5 5 4 4
3 3 2 3 2 1 2 4 5 4 4 4 4 5 6 6 6 6 6 6 6 6 6 6 6 6 6 6 6 6 6 5 5 5 5 5 5 5 5 4 4 4 5 5 5 4 4 4 4
Wind_Speed
5 3 2 4 5 3 4 6 4 3 3 1 1 4 6 5 4 4 1 1 3 3 3 5 8 8 9 9 9 9 9 9 8 8 8 8 8 8 8 7 7 6 6 6 7 7 8 8 9
2 1 4 5 5 2 6 5 5 5 3 1 2 3 3 1 1 3 1 1 3 4 4 6 8 8 8 9 9 8 8 8 8 7 7 7 7 7 7 6 6 6 6 6 6 6 7 8 8
1 3 4 5 5 7 5 4 5 2 2 1 2 3 3 2 1 2 2 3 4 4 5 7 9 8 8 8 8 8 7 7 7 6 6 6 6 6 6 6 6 6 5 5 5 5 6 7 7
3 4 5 3 6 6 5 3 2 0 2 2 3 3 1 1 1 2 3 5 6 5 5 7 9 9 9 8 8 7 7 7 6 6 6 5 5 5 5 5 5 5 4 4 5 5 5 6 6
4 4 3 2 6 5 4 3 2 1 0 2 3 3 1 4 3 4 5 6 6 4 5 7 9 9 8 8 8 7 6 6 6 6 5 4 4 4 4 4 4 4 4 4 3 4 4 5 6
4 4 3 5 6 5 3 2 1 1 1 1 3 5 2 2 3 3 4 5 5 5 4 6 8 8 8 8 8 7 7 6 6 5 5 5 4 4 4 4 3 3 3 3 3 3 3 4 4
5 4 5 5 4 4 3 2 3 3 2 3 4 5 2 2 0 3 4 4 4 4 4 4 5 6 7 7 8 8 7 6 5 5 5 4 4 3 3 3 3 3 2 2 2 3 3 3 4
5 4 3 4 4 5 2 0 1 3 3 1 4 6 5 4 2 4 5 4 3 3 2 2 4 4 4 5 6 6 6 7 6 5 4 4 4 3 3 3 2 2 1 1 2 2 2 2 2
4 3 5 6 6 4 1 1 1 1 1 0 1 3 3 4 5 5 4 3 1 1 0 1 2 2 3 3 4 5 5 5 5 5 5 4 3 2 2 2 2 1 1 0 1 2 1 1 2
4 5 7 4 4 2 1 1 1 1 0 1 1 0 2 4 5 4 3 2 2 2 2 2 2 2 2 2 3 3 3 3 4 4 4 3 3 2 2 1 1 1 1 1 1 1 1 1 1
5 7 4 3 2 1 2 2 1 3 5 7 6 5 3 3 4 5 5 5 5 3 2 2 2 2 2 2 2 2 2 2 2 3 3 3 2 2 2 1 0 1 1 0 1 1 0 1 1
4 4 4 3 1 2 3 3 3 7 8 5 6 5 5 6 7 7 7 5 4 4 4 3 3 3 3 2 2 2 1 1 1 1 1 2 1 1 1 0 1 0 1 1 1 1 1 1 2
5 4 3 4 4 4 4 6 5 8 8 5 3 4 7 8 8 7 6 6 5 5 5 4 3 4 3 2 2 1 1 1 1 1 1 1 1 0 1 1 1 1 1 2 2 2 2 2 2
4 4 5 5 5 4 6 7 5 10 5 5 5 7 8 8 8 6 6 6 6 6 5 4 3 4 4 3 3 2 2 2 1 1 2 2 1 1 1 2 2 2 2 3 3 3 3 3 2
0 2 5 5 5 4 2 8 9 9 4 5 6 6 7 7 6 8 8 7 7 6 5 4 4 4 4 4 3 2 2 2 2 2 3 3 3 2 2 2 3 3 3 3 3 3 2 3 3
1 1 4 4 4 3 4 10 6 4 5 6 7 6 7 7 7 7 7 6 5 5 4 4 3 4 4 4 4 3 3 3 3 3 3 4 4 3 2 2 3 3 3 3 3 3 3 3 3
1 3 5 4 3 3 6 10 7 2 4 8 8 8 7 7 7 7 6 6 5 5 5 5 4 4 5 4 3 3 3 3 3 3 3 4 5 4 3 3 3 3 3 3 4 3 3 4 4
6 5 5 6 3 3 6 12 11 7 6 9 9 8 8 8 9 7 6 5 5 5 4 5 4 4 4 2 1 1 2 3 3 3 4 5 5 5 4 3 4 3 3 3 4 4 4 4 4
4 4 6 6 3 3 9 14 15 10 8 10 10 9 9 9 7 5 5 5 4 4 4 4 4 4 3 2 2 2 3 3 3 4 5 5 5 5 4 4 4 4 4 5 5 4 5 4 2
4 5 6 6 2 3 8 14 13 10 9 10 10 9 9 7 5 4 4 4 5 5 5 5 5 5 4 3 3 3 3 3 4 4 4 6 6 6 5 5 5 5 5 5 6 5 4 3 3
8 8 6 6 5 3 6 9 7 6 4 4 6 6 6 7 7 5 4 5 5 6 6 6 6 6 5 4 2 1 1 2 3 4 4 5 6 6 6 7 6 6 6 6 7 6 6 5 4
8 7 6 4 3 5 1 6 7 5 6 5 5 4 5 5 5 5 5 5 6 6 6 5 5 5 4 4 3 4 3 5 5 5 5 5 5 6 7 7 7 7 6 7 8 7 6 6 6
5 1 3 3 4 4 3 5 9 4 5 7 6 5 4 4 5 6 6 6 6 4 4 4 5 5 4 4 5 4 5 5 4 4 5 6 5 6 7 7 7 7 7 8 8 7 7 7 8
4 3 3 2 2 5 6 7 8 5 6 5 4 4 4 3 4 5 4 4 3 3 3 3 4 5 4 4 4 5 5 5 5 6 6 6 5 5 7 7 7 8 7 8 8 8 9 8 9
4 4 1 2 2 7 4 5 9 7 5 4 5 5 4 3 2 3 3 3 3 4 4 3 4 4 4 4 4 5 5 6 6 7 6 6 6 5 7 7 7 8 8 8 8 8 9 9 9
7 7 6 6 5 4 3 8 8 5 4 3 4 4 2 2 2 3 4 4 4 5 4 4 4 4 3 3 4 4 4 4 5 6 6 7 6 7 7 7 8 8 8 8 8 8 9 8 9
6 6 4 4 1 3 6 7 8 2 3 3 3 2 2 2 3 4 4 4 4 4 4 4 4 3 3 3 3 4 4 4 5 6 6 6 6 7 7 7 8 8 8 9 8 8 9 8 9
4 7 4 5 4 5 6 5 5 4 3 3 3 3 4 3 4 4 4 4 4 4 3 3 3 3 3 3 3 4 4 5 5 5 6 7 7 7 7 7 8 8 8 8 8 8 8 9 8
5 4 4 4 4 5 4 6 4 5 3 2 3 4 4 4 5 4 4 4 3 2 2 3 3 3 3 3 3 4 5 5 5 5 7 7 7 7 7 7 7 7 7 8 8 8 8 9 9
5 6 7 6 5 4 4 7 4 3 2 2 4 4 4 4 5 4 4 4 3 3 3 3 3 3 4 4 4 4 5 5 5 6 7 7 7 7 6 6 6 7 7 7 8 9 8 9 9
Wind_Direction
358 10 66 60 61 60 236 238 223 234 220 218 141 134 144 149 161 174 219 126 127 135 140 133 122 117 116 115 110 107 106 107 107 109 109 108 111 115 119 122 127 130 131 135 138 137 136 133 130
7 50 59 67 107 188 251 234 220 221 206 114 73 99 102 104 70 114 134 158 125 126 120 123 118 115 113 110 107 105 103 103 104 106 110 112 115 118 121 123 123 123 124 129 133 135 140 139 140
56 56 89 94 156 197 227 222 217 250 259 186 63 55 111 138 153 167 196 150 111 102 103 120 119 114 112 111 108 107 105 101 100 100 101 109 118 122 122 122 122 120 119 127 131 137 143 146 147
92 59 65 109 219 227 225 237 199 7 24 64 111 68 28 346 219 189 128 125 111 98 92 111 115 112 107 104 104 102 101 100 100 98 94 95 106 118 121 120 118 116 114 119 130 140 148 155 156
63 88 104 225 240 248 244 262 248 214 23 45 105 119 26 349 28 90 110 120 116 101 83 102 108 108 106 104 101 99 100 99 97 98 97 93 92 96 101 114 122 122 118 117 122 140 147 159 165
66 82 139 223 242 261 259 248 190 190 173 98 118 133 191 348 57 87 102 114 117 111 83 87 102 104 102 99 97 96 95 96 93 88 90 90 91 88 86 92 109 122 125 128 128 127 145 163 170
116 124 191 216 241 255 243 202 169 179 190 197 152 137 209 296 97 88 87 96 99 98 90 75 84 95 99 97 95 91 87 87 89 88 82 81 79 84 91 86 91 102 121 134 143 148 146 166 179
126 127 193 223 220 241 241 107 147 156 199 182 146 156 198 215 142 90 78 73 78 76 86 91 78 87 91 92 94 92 85 77 73 73 76 78 79 81 85 88 90 97 97 132 165 156 152 170 187
96 109 217 219 206 233 203 88 357 7 133 323 200 188 194 134 117 98 80 56 86 114 114 128 112 91 94 101 100 94 86 77 71 63 64 68 60 67 78 76 97 96 91 120 201 187 166 185 202
120 194 224 217 207 218 242 209 238 32 337 256 272 291 100 126 134 137 152 175 193 210 217 196 171 152 114 110 99 88 85 78 71 61 55 53 55 50 56 75 120 155 150 225 243 227 196 166 180
172 207 229 247 248 229 242 255 225 177 234 219 212 206 169 166 173 183 197 199 206 212 222 217 199 180 155 135 116 92 79 70 61 59 56 52 51 38 30 42 347 218 185 210 266 243 173 158 171
195 237 228 252 235 231 236 245 247 215 229 225 210 197 195 202 209 210 213 217 212 212 225 231 204 187 178 159 152 143 111 77 50 26 55 71 50 14 352 333 284 206 202 197 204 210 213 216 215
217 252 244 251 260 252 253 245 250 249 245 244 223 211 217 219 225 224 216 213 211 216 225 226 217 196 185 170 176 163 180 193 232 248 246 176 174 262 264 242 261 241 220 204 205 210 214 225 227
231 251 275 269 251 245 241 259 240 257 237 222 215 222 227 225 224 223 219 217 216 217 220 217 217 207 187 181 184 197 208 207 219 241 247 230 210 228 258 261 249 240 235 224 213 215 225 232 233
236 299 294 250 222 232 215 273 232 243 215 224 232 234 234 233 225 221 217 212 213 215 216 215 216 213 199 195 200 206 215 209 217 234 241 239 235 228 228 254 256 247 251 236 226 223 219 242 246
80 289 274 265 191 194 175 263 260 220 193 231 239 240 239 243 236 230 219 214 209 205 212 219 217 212 206 202 207 215 221 219 225 232 237 240 238 233 226 237 254 255 251 227 226 227 234 247 245
209 234 244 280 210 184 199 254 274 257 224 248 245 241 243 249 249 239 221 208 200 199 205 211 214 214 208 206 211 219 223 228 231 235 239 242 239 236 228 234 244 251 240 238 238 232 227 244 252
213 218 241 250 256 205 241 262 276 276 248 253 252 246 244 243 245 236 219 212 202 199 203 210 219 221 204 197 209 234 244 243 237 234 240 241 241 238 230 233 239 239 244 245 239 238 233 234 244
183 204 246 259 270 246 256 269 275 272 255 253 251 242 240 244 251 237 218 209 200 200 204 209 215 224 192 187 196 217 243 248 247 239 238 239 241 239 229 240 239 234 236 238 238 240 235 235 228
223 240 257 280 287 261 281 277 274 262 246 240 242 239 236 240 245 229 216 206 204 207 211 209 220 225 207 202 202 207 227 244 245 245 246 240 240 238 238 230 236 235 238 240 237 232 233 238 211
232 230 236 257 321 314 312 297 279 279 261 254 240 235 227 218 220 217 212 216 210 213 214 216 224 226 217 205 200 237 270 280 266 260 254 245 241 239 236 234 234 235 230 238 236 227 225 235 227
242 224 214 234 284 286 350 293 284 282 299 281 265 246 230 225 215 213 213 218 218 222 221 219 228 226 218 200 200 215 237 251 257 259 260 263 249 245 242 238 237 238 236 236 237 232 227 223 230
208 167 190 220 216 278 231 242 280 297 278 272 266 255 248 232 219 217 218 221 231 225 223 226 231 229 219 213 207 217 241 252 265 268 270 270 261 250 246 241 238 240 240 239 239 235 229 226 228
147 78 62 63 106 258 215 203 273 246 237 264 273 270 265 250 238 233 232 229 245 244 229 229 226 229 223 221 217 217 235 252 266 270 272 274 271 260 251 244 239 241 241 240 239 235 232 232 230
137 120 60 325 268 247 191 210 251 251 243 237 264 274 274 258 243 248 246 244 251 248 237 231 224 237 235 228 227 226 233 238 246 257 260 267 270 267 259 255 246 245 244 243 239 236 236 232 230
187 169 178 205 227 270 213 233 255 260 271 274 277 280 286 281 275 264 258 255 256 252 244 237 236 245 247 240 245 244 239 244 252 256 259 259 261 262 262 258 252 248 245 245 240 240 238 237 234
161 199 168 137 152 267 256 273 295 271 306 320 321 323 300 290 281 278 279 268 256 250 245 237 236 254 262 256 258 263 255 253 260 266 266 265 263 266 261 257 257 254 247 242 239 241 240 238 236
156 148 132 158 183 243 272 263 252 267 277 317 327 309 305 305 303 298 295 287 270 251 245 254 245 247 260 262 263 281 273 267 267 272 273 272 269 267 264 262 259 258 254 244 241 243 241 238 240
144 156 156 156 176 186 254 266 231 222 230 264 293 304 303 299 300 299 301 298 299 303 280 273 267 261 274 277 278 282 283 282 282 277 273 273 275 271 266 264 262 259 258 247 240 243 242 240 242
181 178 161 175 214 196 211 267 284 219 240 272 301 310 313 309 307 302 302 316 326 314 307 298 288 277 275 277 279 279 282 289 291 285 283 282 281 276 271 270 270 265 263 251 244 246 244 241 242
Height
1477 1479 1481 1484 1489 1498 1496 1488 1483 1480 1478 1477 1476 1477 1478 1481 1485 1489 1485 1484 1486 1488 1489 1491 1492 1494 1495 1497 1498 1500 1501 1502 1503 1504 1505 1506 1507 1508 1508 1509 1510 1511 1512 1513 1514 1514 1515 1516 1517
1477 1480 1483 1484 1493 1501 1494 1484 1481 1477 1475 1476 1476 1477 1478 1479 1481 1482 1483 1484 1486 1488 1489 1491 1492 1494 1495 1497 1498 1499 1500 1501 1502 1503 1504 1505 1506 1507 1508 1509 1510 1510 1511 1512 1513 1514 1515 1515 1516
1477 1480 1483 1486 1493 1494 1485 1478 1477 1475 1475 1475 1476 1477 1478 1480 1481 1482 1483 1485 1486 1488 1489 1491 1492 1494 1495 1496 1498 1499 1500 1501 1501 1502 1503 1504 1505 1506 1507 1508 1509 1510 1510 1511 1512 1513 1514 1514 1515
1478 1481 1483 1489 1489 1484 1479 1475 1474 1474 1474 1475 1476 1478 1479 1481 1481 1482 1484 1485 1487 1488 1489 1491 1492 1493 1495 1496 1497 1498 1499 1500 1501 1502 1502 1503 1504 1505 1506 1507 1507 1508 1509 1510 1511 1512 1513 1513 1514
1477 1479 1486 1489 1485 1479 1476 1474 1474 1474 1474 1475 1476 1478 1479 1481 1481 1482 1484 1485 1487 1488 1489 1490 1491 1493 1494 1495 1496 1497 1498 1499 1500 1500 1501 1502 1503 1504 1504 1505 1506 1507 1508 1508 1509 1510 1511 1512 1513
1477 1479 1489 1489 1483 1477 1474 1473 1473 1473 1474 1475 1476 1477 1479 1480 1481 1482 1484 1485 1487 1488 1489 1490 1491 1492 1493 1494 1495 1496 1497 1497 1498 1499 1500 1501 1501 1502 1503 1504 1504 1505 1506 1507 1508 1508 1509 1510 1511
1477 1482 1485 1484 1482 1477 1473 1471 1472 1472 1473 1474 1475 1477 1478 1479 1481 1482 1484 1485 1486 1487 1488 1489 1490 1491 1492 1493 1493 1494 1495 1496 1497 1497 1498 1499 1500 1500 1501 1502 1503 1503 1504 1505 1506 1506 1507 1508 1509
1475 1481 1482 1483 1480 1475 1471 1470 1470 1471 1472 1474 1475 1475 1476 1478 1480 1481 1483 1484 1485 1486 1487 1488 1489 1490 1490 1491 1492 1493 1493 1494 1495 1496 1496 1497 1498 1498 1499 1500 1501 1501 1502 1503 1503 1504 1505 1506 1507
1475 1483 1483 1479 1477 1472 1470 1470 1471 1471 1471 1472 1473 1474 1475 1476 1478 1480 1481 1482 1484 1485 1486 1486 1487 1488 1489 1489 1490 1491 1492 1492 1493 1494 1494 1495 1496 1496 1497 1498 1498 1499 1499 1500 1501 1502 1502 1503 1504
1474 1481 1476 1472 1471 1470 1470 1470 1470 1470 1470 1471 1471 1472 1473 1475 1476 1477 1479 1480 1481 1482 1483 1484 1485 1486 1486 1487 1488 1489 1489 1490 1491 1491 1492 1493 1493 1494 1495 1495 1496 1496 1497 1498 1498 1499 1500 1501 1501
1472 1474 1471 1470 1469 1469 1469 1469 1469 1469 1469 1468 1468 1469 1471 1473 1474 1475 1476 1478 1479 1480 1481 1482 1483 1483 1484 1485 1485 1486 1487 1487 1488 1489 1489 1490 1490 1491 1492 1492 1493 1494 1494 1495 1496 1496 1497 1497 1498
1471 1470 1469 1468 1468 1468 1468 1468 1467 1466 1465 1466 1466 1467 1468 1469 1471 1472 1473 1475 1476 1477 1478 1479 1480 1481 1481 1482 1483 1483 1484 1485 1485 1486 1486 1487 1487 1488 1488 1489 1490 1490 1491 1491 1492 1493 1493 1494 1495
1470 1468 1467 1467 1467 1467 1467 1466 1465 1461 1462 1463 1464 1465 1465 1466 1467 1469 1471 1472 1473 1474 1475 1476 1477 1478 1479 1480 1480 1481 1481 1482 1482 1483 1483 1483 1484 1484 1485 1485 1486 1487 1487 1488 1488 1489 1490 1490 1490
1467 1467 1466 1465 1465 1465 1465 1462 1463 1455 1458 1459 1460 1461 1462 1463 1464 1465 1467 1468 1469 1471 1472 1473 1474 1475 1476 1477 1477 1478 1478 1479 1479 1479 1480 1480 1480 1481 1481 1482 1482 1483 1483 1484 1484 1485 1485 1486 1486
1466 1467 1465 1462 1462 1462 1463 1461 1457 1453 1455 1455 1456 1457 1458 1459 1460 1461 1463 1464 1466 1467 1469 1470 1471 1472 1473 1474 1475 1475 1475 1475 1476 1476 1476 1477 1477 1477 1477 1478 1478 1479 1479 1480 1480 1481 1481 1481 1482
1466 1468 1467 1461 1460 1460 1465 1459 1451 1451 1452 1452 1453 1453 1454 1455 1457 1458 1460 1461 1462 1464 1465 1467 1468 1469 1470 1471 1471 1472 1472 1472 1472 1472 1473 1473 1473 1473 1474 1474 1474 1475 1475 1475 1476 1477 1476 1477 1477
1469 1469 1466 1462 1459 1459 1461 1456 1449 1448 1449 1448 1448 1449 1450 1451 1452 1454 1456 1457 1459 1460 1462 1463 1464 1465 1466 1467 1468 1468 1468 1468 1468 1468 1468 1469 1469 1469 1469 1469 1470 1471 1471 1471 1471 1471 1472 1472 1472
1466 1468 1465 1463 1458 1459 1459 1454 1447 1446 1446 1445 1444 1444 1445 1446 1447 1449 1451 1453 1455 1456 1458 1459 1460 1461 1462 1463 1464 1464 1464 1464 1464 1464 1464 1464 1464 1465 1465 1465 1465 1466 1466 1467 1467 1467 1467 1467 1468
1461 1463 1463 1460 1458 1459 1457 1451 1444 1442 1442 1440 1439 1439 1440 1441 1443 1445 1447 1449 1450 1452 1454 1455 1456 1457 1458 1459 1459 1459 1459 1460 1460 1460 1460 1460 1460 1460 1460 1460 1460 1461 1461 1461 1462 1462 1462 1462 1463
1461 1462 1461 1459 1457 1457 1456 1449 1441 1437 1436 1434 1434 1434 1435 1436 1438 1440 1442 1444 1446 1448 1450 1451 1452 1453 1454 1455 1455 1455 1455 1455 1455 1455 1455 1455 1454 1454 1454 1454 1454 1455 1455 1456 1456 1457 1456 1457 1458
1459 1460 1459 1459 1458 1457 1457 1447 1439 1433 1431 1430 1430 1430 1430 1432 1434 1435 1437 1439 1441 1443 1445 1447 1448 1449 1449 1450 1451 1451 1451 1450 1450 1450 1449 1449 1449 1449 1449 1449 1449 1449 1450 1449 1450 1451 1451 1451 1452
1456 1454 1456 1457 1461 1462 1460 1458 1440 1434 1431 1428 1427 1426 1426 1428 1430 1432 1434 1435 1437 1439 1441 1442 1444 1444 1445 1446 1446 1446 1445 1444 1444 1444 1444 1443 1443 1443 1443 1443 1443 1443 1443 1443 1444 1445 1446 1446 1446
1453 1453 1456 1457 1461 1464 1462 1462 1443 1436 1432 1427 1425 1424 1424 1425 1427 1428 1430 1432 1434 1435 1437 1438 1439 1440 1440 1441 1441 1441 1440 1439 1439 1439 1438 1437 1437 1437 1437 1437 1437 1437 1437 1437 1437 1438 1439 1440 1440
1451 1455 1459 1463 1465 1465 1458 1461 1444 1436 1429 1426 1424 1423 1422 1423 1424 1425 1427 1429 1430 1432 1433 1434 1434 1435 1436 1436 1436 1436 1435 1434 1433 1433 1432 1431 1431 1430 1430 1430 1430 1430 1430 1430 1430 1431 1432 1433 1434
1450 1457 1464 1465 1470 1462 1454 1455 1440 1428 1425 1424 1423 1421 1421 1421 1421 1422 1423 1425 1426 1428 1429 1430 1430 1430 1431 1431 1431 1431 1430 1429 1428 1427 1426 1425 1424 1424 1424 1424 1423 1423 1423 1423 1423 1423 1424 1425 1426
1448 1450 1457 1460 1462 1458 1454 1451 1434 1424 1422 1421 1421 1420 1420 1419 1419 1420 1421 1421 1422 1424 1425 1425 1426 1426 1426 1427 1427 1426 1426 1425 1423 1422 1421 1420 1419 1418 1417 1417 1416 1416 1416 1416 1416 1416 1416 1417 1418
1446 1449 1449 1459 1463 1460 1450 1443 1431 1421 1421 1420 1420 1419 1418 1419 1419 1420 1420 1420 1420 1421 1421 1422 1422 1422 1422 1422 1422 1421 1421 1419 1418 1417 1416 1414 1413 1412 1411 1411 1410 1409 1408 1408 1408 1408 1408 1409 1410
1440 1445 1453 1456 1457 1452 1445 1442 1433 1423 1422 1421 1420 1419 1418 1418 1418 1418 1417 1417 1417 1417 1418 1419 1419 1418 1418 1418 1418 1417 1416 1414 1413 1411 1410 1409 1407 1406 1405 1404 1403 1402 1401 1401 1401 1401 1401 1402 1402
1442 1445 1447 1453 1455 1455 1449 1437 1423 1422 1420 1421 1420 1419 1418 1418 1417 1417 1416 1415 1414 1415 1415 1416 1415 1415 1415 1414 1413 1412 1411 1410 1408 1407 1405 1403 1402 1400 1399 1398 1397 1395 1394 1394 1394 1394 1394 1394 1394
1436 1439 1444 1449 1454 1457 1456 1439 1419 1419 1419 1419 1419 1419 1418 1418 1417 1416 1415 1414 1413 1413 1413 1413 1412 1412 1411 1410 1409 1408 1406 1405 1403 1402 1400 1398 1396 1394 1393 1392 1391 1389 1388 1388 1387 1387 1387 1387 1387